Location: Herksen
(52.4316°N, 6.1319°E)
Time: 12:04:15
(UTC+00:00)

Cosmos 1933 - Pass Details

Date: 15 May 2026
Orbit: 508 x 512 km, 82.5° (Epoch: 5 June)

Event Time Altitude Azimuth Distance (km) Brightness Sun altitude
Exits shadow 21:19:38 - 206° (SSW) 2,183 6.1 -13.0°
Reaches altitude 10° 21:20:46 10° 210° (SSW) 1,731 5.6 -13.1°
Maximum altitude 21:24:26 47° 285° (WNW) 691 4.1 -13.4°
Drops below altitude 10° 21:28:09 10° 1° (N) 1,748 6.8 -13.6°
Sets 21:30:21 0° 7° (N) 2,640 7.7 -13.8°
